Flag for Germany Weather past 2 weeks in Ahaus, North Rhine-Westphalia, Germany

Now
52 °F

Rain. Overcast.


Feels Like: 51 °F
Forecast: 48 / 61 °F
Wind: 5 mph from Southwest

Location: Twenthe

Current Time: Aug 22, 2014 at 8:06:18 PM

Latest Report: Aug 22, 2014 at 7:00 PM


Visibility: 6 mi

Pressure: 29.83 "Hg

Humidity: 92%

Dew point: 49 °F

Location of AhausLocation

Historic Weather in Ahaus — Graph

°F

Ahaus temperature yesterday

Maximum temperature yesterday: 64 °F (at 3:00 PM)
Minimum temperature yesterday: 46 °F (at 6:00 AM)
Average temperature yesterday: 54 °F

Past Weeks' High & Low Weather Summary

 TemperatureHumidityPressure
High78 °F (Aug 8, 4:00 PM)100% (Aug 8, 12:00 AM)30.07 "Hg (Aug 8, 12:00 AM)
Low46 °F (Aug 21, 6:00 AM)47% (Aug 11, 3:00 PM)29.54 "Hg (Aug 10, 7:00 PM)
Average60 °F82%29.83 "Hg
* Reported Aug 7 6:00 PM — Aug 22 6:00 PM, Ahaus, Weather by CustomWeather, © 2014

Note: Actual official high and low records may vary slightly from our data, if they occured in-between our weather recording intervals... More about our weather records

Advertising

Ahaus weather history for previous 24 hours

 ConditionsComfort  
Time TempWeatherWind HumidityBarometerVisibility
6:00 PM
Aug 22
58 °FRain showers. Partly sunny.5 mph88%29.83 "Hg16 mi
5:00 PM58 °FRain showers. Partly sunny.6 mph85%29.83 "Hg9 mi
4:00 PM62 °FOvercast.9 mph64%29.82 "Hg25 mi
3:00 PM61 °FLight rain. Scattered clouds.6 mph74%29.83 "Hg22 mi
2:00 PM61 °FRain showers. Scattered clouds.7 mph73%29.83 "Hg11 mi
1:00 PM62 °FOvercast.7 mph66%29.83 "Hg19 mi
12:00 PM63 °FPartly sunny.8 mph63%29.84 "Hg22 mi
11:00 AM60 °FOvercast.8 mph70%29.84 "Hg22 mi
10:00 AM59 °FScattered clouds.6 mph73%29.85 "Hg22 mi
9:00 AM56 °FOvercast.6 mph77%29.85 "Hg19 mi
8:00 AM54 °FOvercast.6 mph81%29.86 "Hg22 mi
7:00 AM52 °FOvercast.6 mph85%29.87 "Hg18 mi
6:00 AM52 °FPassing clouds.6 mph85%29.87 "Hg19 mi
5:00 AM52 °FPassing clouds.5 mph85%29.88 "Hg19 mi
4:00 AM53 °FPassing clouds.5 mph86%29.89 "Hg16 mi
3:00 AM53 °FPassing clouds.5 mph86%29.90 "Hg15 mi
2:00 AM53 °FPassing clouds.3 mph88%29.91 "Hg16 mi
1:00 AM54 °FPassing clouds.3 mph85%29.93 "Hg18 mi
12:00 AM57 °FOvercast.3 mph78%29.93 "Hg19 mi
11:00 PM
Aug 21
58 °FOvercast.5 mph75%29.94 "Hg19 mi
10:00 PM55 °FOvercast.1 mph87%29.94 "Hg16 mi
9:00 PM56 °FOvercast.2 mph81%29.94 "Hg6 mi
8:00 PM58 °FScattered clouds.3 mph71%29.94 "Hg22 mi
Weather by CustomWeather, © 2014

See weather overviewHow to use our weather pages